Weather History for Louisville, KY

Change the Weather History Date:

Sunday, January 1, 2012

  Actual Average Record
Temperature  
Mean Temperature 46 °F 35 °F  
Max Temperature 59 °F 43 °F 72 °F (1952)
Min Temperature 33 °F 27 °F -5 °F (1928)
Degree Days  
Heating Degree Days 19 30  
Month to date heating degree days 19 30  
Since 1 July heating degree days 1354 1606  
Cooling Degree Days 0 0  
Month to date cooling degree days 0 0  
Year to date cooling degree days 0 0  
Moisture  
Dew Point 30 °F    
Average Humidity 50    
Maximum Humidity 67    
Minimum Humidity 32    
Precipitation  
Precipitation 0.00 in 0.11 in 2.56 in (1966)
Month to date precipitation 0.00 0.11  
Year to date precipitation 0.00 0.11  
Snow  
Snow 0.00 in 0.10 in 7.20 in (1964)
Month to date snowfall 0.0 0.1  
Since 1 July snowfall T 2.9  
Snow Depth 0.00 in    
Sea Level Pressure  
Sea Level Pressure 30.01 in    
Wind  
Wind Speed 18 mph (West)    
Max Wind Speed 36 mph    
Max Gust Speed 44 mph    
Visibility 10 miles    
Events      
T = Trace of Precipitation, MM = Missing Value Source: NWS Daily Summary

Daily Weather History Graph

Daily Weather History Graph

Search for Another Location

Airport:

Trip Planner

Search our weather history database for the weather conditions in past years. The results will help you decide how hot, cold, wet, or windy it might be!

Date:

Astronomy

Jan. 01, 2012 Rise Set
Actual Time 7:59 AM EST 5:33 PM EST
Civil Twilight 7:29 AM EST 6:02 PM EST
Nautical Twilight 6:56 AM EST 6:35 PM EST
Astronomical Twilight 6:24 AM EST 7:07 PM EST
Moon 12:18 PM EST (1/1) 12:57 AM EST (1/1)
Length of Visible Light 10h 32m
Length of Day
9h 33m
First Quarter, 54% of the Moon is Illuminated
Jan 1
First Quarter
Jan 9
Full
Jan 16
Last Quarter
Jan 23
New
Jan 30
First Quarter

Hourly Weather History & Observations

Time (EST) Temp. Windchill Dew Point Humidity Pressure Visibility Wind Dir Wind Speed Gust Speed Precip Events Conditions
12:56 AM 48.0 °F - 36.0 °F 63% 29.91 in 10.0 mi SSE 10.4 mph - N/A   Mostly Cloudy
1:56 AM 53.1 °F - 34.0 °F 48% 29.87 in 10.0 mi South 10.4 mph - N/A   Overcast
2:56 AM 54.0 °F - 35.1 °F 49% 29.86 in 10.0 mi South 11.5 mph - N/A   Overcast
3:56 AM 55.0 °F - 36.0 °F 49% 29.83 in 10.0 mi South 11.5 mph - N/A   Overcast
4:56 AM 57.0 °F - 39.9 °F 53% 29.79 in 10.0 mi South 16.1 mph 25.3 mph N/A   Mostly Cloudy
5:56 AM 57.0 °F - 43.0 °F 59% 29.78 in 10.0 mi SSW 11.5 mph - N/A   Scattered Clouds
6:56 AM 57.9 °F - 46.0 °F 65% 29.78 in 10.0 mi SW 17.3 mph 24.2 mph N/A   Mostly Cloudy
7:56 AM 57.9 °F - 46.9 °F 67% 29.79 in 10.0 mi SW 19.6 mph 29.9 mph N/A   Mostly Cloudy
8:56 AM 55.9 °F - 41.0 °F 57% 29.85 in 10.0 mi West 29.9 mph 40.3 mph N/A   Mostly Cloudy
9:56 AM 53.1 °F - 37.0 °F 55% 29.91 in 10.0 mi West 31.1 mph 41.4 mph N/A   Overcast
10:56 AM 46.9 °F - 35.1 °F 63% 29.99 in 10.0 mi West 28.8 mph 39.1 mph N/A   Overcast
11:56 AM 48.0 °F - 34.0 °F 58% 30.01 in 10.0 mi West 21.9 mph 31.1 mph N/A   Overcast
12:56 PM 45.0 °F 36.6 °F 33.1 °F 63% 30.04 in 10.0 mi West 21.9 mph 28.8 mph N/A   Overcast
1:23 PM 44.6 °F 35.5 °F 33.8 °F 66% 30.03 in 10.0 mi West 25.3 mph 33.4 mph N/A   Overcast
1:56 PM 45.0 °F 36.9 °F 33.1 °F 63% 30.04 in 10.0 mi West 20.7 mph 32.2 mph N/A   Overcast
2:23 PM 46.4 °F 38.1 °F 32.0 °F 57% 30.05 in 10.0 mi West 24.2 mph 34.5 mph N/A   Overcast
2:56 PM 46.9 °F - 30.0 °F 52% 30.07 in 10.0 mi West 18.4 mph 32.2 mph N/A   Mostly Cloudy
3:56 PM 46.9 °F - 28.9 °F 50% 30.10 in 10.0 mi West 20.7 mph 27.6 mph N/A   Mostly Cloudy
4:56 PM 46.0 °F 37.2 °F 21.0 °F 37% 30.14 in 10.0 mi WNW 26.5 mph 35.7 mph N/A   Partly Cloudy
5:56 PM 43.0 °F 33.1 °F 19.9 °F 40% 30.16 in 10.0 mi WNW 26.5 mph 35.7 mph N/A   Partly Cloudy
6:56 PM 42.1 °F 34.5 °F 19.0 °F 40% 30.19 in 10.0 mi WNW 15.0 mph 24.2 mph N/A   Mostly Cloudy
7:56 PM 42.1 °F 35.7 °F 18.0 °F 38% 30.21 in 10.0 mi WNW 11.5 mph - N/A   Mostly Cloudy
8:56 PM 41.0 °F 33.1 °F 14.0 °F 33% 30.23 in 10.0 mi WNW 15.0 mph 25.3 mph N/A   Mostly Cloudy
9:56 PM 37.0 °F 29.8 °F 14.0 °F 39% 30.25 in 10.0 mi NW 10.4 mph 27.6 mph N/A   Partly Cloudy
10:56 PM 35.1 °F 27.4 °F 16.0 °F 46% 30.25 in 10.0 mi WNW 10.4 mph - N/A   Clear
11:56 PM 33.1 °F 25.5 °F 16.0 °F 50% 30.23 in 10.0 mi West 9.2 mph - N/A   Clear